Back to catalog

LOPEN

AliveCommunicationsSSO
NORAD 60473·PAYLOAD·🇺🇸 United States

Launched Aug 16, 2024 from Vandenberg Space Force Base

Loading…

Next Passes (next 24 hours)

TLE

FreshSource: Space-Track

Epoch: Sep 13, 2026, 18:34 UTC

1 60473U 24149F   26256.77376258  .00012550  00000-0  29602-3 0  9991
2 60473  97.3731 340.9614 0000401  24.8432 335.2834 15.42033905115903

Track LOPEN in real time with AllMySat

Download on the App Store